Wind_Speed
17 17 17 17 17 18 18 18 18 18 19 19 20 20 20 20 19 18 17 15 13 12 12 12 12 13 13 13 13 11 9 7 4 3 4 7 9 11 13 15 16 17 16 15 12 10 9 8 7 7 6 5 4 4 6 8 8 7 7 6 5 4 3 2 1 0 0 1 3
18 18 18 18 18 18 18 18 18 18 19 19 19 19 19 19 18 17 15 13 11 10 10 10 10 10 11 10 9 8 6 3 1 3 6 9 12 14 15 17 16 15 14 12 10 8 7 5 4 4 4 6 5 7 8 9 8 8 8 6 5 4 3 2 1 0 1 2 4
19 19 19 18 18 18 18 18 18 18 18 19 19 18 18 17 16 14 12 10 9 8 7 8 8 8 8 8 6 4 2 1 3 7 10 13 14 15 15 15 14 12 10 9 7 6 4 3 3 3 5 8 9 9 9 9 9 8 7 5 4 3 2 2 1 1 2 4 5
19 19 19 19 18 18 18 18 18 18 18 18 18 17 17 15 14 12 10 8 7 6 6 6 6 6 5 5 3 1 2 5 8 12 14 14 14 13 12 11 10 8 6 5 4 3 3 3 5 7 9 9 10 10 9 9 9 7 6 5 4 3 2 2 3 4 5 7 8
19 19 19 19 18 18 18 18 18 18 18 18 17 16 15 14 12 10 8 6 5 4 4 5 4 4 3 1 1 4 7 10 12 13 14 12 11 10 8 7 5 4 3 2 2 4 6 7 9 10 10 10 10 9 9 8 7 6 5 4 3 2 3 4 5 7 8 9 10
20 19 19 19 19 18 18 18 18 18 17 17 16 15 13 12 10 8 6 5 4 3 3 3 2 1 1 2 5 9 11 12 12 12 11 9 8 6 5 3 2 2 2 4 5 7 9 10 11 11 10 10 9 9 7 6 5 4 3 3 3 4 6 7 8 9 10 11 12
20 19 19 19 18 18 18 18 18 17 17 16 15 14 12 11 9 7 5 4 3 2 1 1 0 2 4 6 9 12 13 12 11 9 8 7 5 3 2 0 3 5 6 8 9 10 11 10 10 10 10 10 8 7 5 4 3 3 3 5 6 7 8 9 10 11 12 13 14
19 19 19 19 18 18 18 18 17 17 16 15 14 13 12 10 8 6 5 4 2 1 1 1 2 4 7 10 12 12 11 10 8 7 5 4 3 1 1 3 6 8 9 10 11 11 11 11 10 10 9 8 7 5 4 4 3 4 6 7 8 9 10 11 12 13 14 15 15
19 19 19 19 19 19 18 18 17 17 16 15 14 12 11 9 7 6 4 3 2 1 1 2 3 6 9 12 12 10 8 7 5 3 2 2 1 3 5 7 9 10 11 11 11 11 11 10 10 9 8 7 6 5 5 5 5 6 8 10 11 12 13 14 14 15 15 15 15
20 20 20 20 20 19 18 18 17 17 16 14 13 12 10 8 6 5 4 3 2 2 2 3 5 8 10 10 9 7 5 4 2 1 2 3 5 7 9 11 11 11 11 10 10 10 10 9 8 7 6 5 5 5 5 6 8 10 12 13 14 15 15 15 15 15 14 14 14
20 21 21 21 20 19 18 17 17 16 15 14 12 10 8 7 5 4 4 3 3 3 3 3 5 8 10 9 7 6 4 3 3 4 5 6 8 9 10 11 10 10 9 9 9 8 7 6 6 5 5 5 5 7 8 10 12 13 14 15 15 15 16 15 15 14 14 14 14
21 22 22 21 20 19 18 17 16 15 14 12 11 9 7 5 4 4 4 3 3 3 3 4 5 8 9 8 6 4 3 3 4 5 6 8 9 9 9 9 9 8 8 8 7 6 5 4 4 4 5 6 8 10 12 13 14 15 16 16 16 16 16 15 14 14 14 14 14
21 22 22 21 20 19 17 16 15 14 13 11 9 7 6 4 4 4 4 4 4 5 4 5 6 8 9 7 6 5 5 5 5 6 7 8 8 8 8 8 7 7 7 6 5 5 4 4 5 6 8 10 11 13 14 15 16 16 16 16 16 16 15 14 14 13 14 14 14
22 22 22 21 20 18 17 15 14 13 12 10 8 7 5 5 4 4 4 5 6 6 6 6 7 8 9 9 8 7 6 6 6 6 7 8 8 7 6 6 6 5 5 5 5 6 6 7 9 10 12 13 14 15 15 15 15 15 15 15 15 15 14 14 14 14 14 15 16
23 22 22 21 20 18 17 15 14 12 11 9 8 7 6 5 5 5 5 5 6 6 6 7 8 9 9 10 9 8 6 6 6 7 8 8 7 6 5 5 6 7 7 8 9 9 10 11 12 13 14 14 15 14 14 14 14 14 14 14 14 14 14 14 14 15 15 16 17
23 23 22 21 20 18 16 15 13 12 10 9 8 8 7 7 6 6 6 6 6 7 7 8 9 10 11 11 10 9 7 7 7 8 8 8 7 6 7 8 9 10 11 11 11 11 12 12 12 13 13 14 14 13 13 13 13 13 13 13 14 14 14 15 15 15 16 17 17
24 24 23 21 20 18 16 15 13 12 11 10 9 8 8 8 7 7 7 7 7 8 9 10 11 12 12 12 11 10 9 8 8 9 9 8 8 8 10 11 12 13 13 12 11 11 10 10 11 12 13 13 14 14 13 13 13 13 13 14 14 14 15 15 15 16 16 16 17
24 24 23 22 20 19 17 15 14 13 12 11 11 10 10 9 9 9 9 9 9 10 12 13 14 14 13 12 11 10 9 9 9 9 9 9 10 11 13 14 14 13 12 11 10 10 10 11 12 12 13 14 14 15 15 14 14 14 14 14 14 14 15 15 15 15 16 16 17
24 24 23 22 21 20 18 17 16 15 14 14 13 13 12 12 11 11 10 11 13 14 15 15 15 14 13 11 10 9 9 9 9 9 9 10 11 13 14 13 12 11 10 9 10 10 11 12 13 14 14 15 15 15 15 15 15 15 15 14 14 14 14 15 15 15 15 16 16
23 23 23 22 21 20 19 18 17 17 16 15 15 14 13 13 12 11 11 13 15 16 16 15 14 12 11 10 9 9 9 10 10 10 11 11 13 13 13 11 10 9 9 9 11 12 13 14 15 15 15 15 15 15 15 15 15 15 14 14 14 14 14 14 15 15 16 16 17
23 23 22 22 21 20 19 19 18 17 16 15 15 14 13 13 13 13 14 15 17 17 16 14 12 11 10 10 11 11 11 11 11 11 12 13 13 12 11 9 8 9 10 11 13 14 15 15 15 15 15 15 15 15 15 15 14 14 14 14 14 14 14 15 15 16 16 17 18
22 22 22 21 20 19 18 17 17 17 16 16 15 14 14 14 14 16 18 19 20 18 16 13 11 10 11 12 13 14 14 13 13 13 13 13 12 11 10 9 9 11 12 14 15 16 16 16 16 16 16 15 15 15 14 14 14 14 14 15 15 15 15 16 16 17 18 18 19
22 22 21 21 20 19 18 17 17 17 16 15 14 14 14 15 16 18 20 21 19 17 14 11 10 11 13 14 15 15 15 14 14 14 13 11 10 9 9 10 11 13 14 15 16 17 17 16 16 16 16 16 16 15 15 15 15 15 15 15 16 16 17 17 18 18 19 19 20
22 22 21 21 20 19 18 17 17 16 14 13 13 13 14 16 18 19 19 18 16 15 13 12 12 12 13 14 15 16 15 15 13 12 10 9 9 9 10 11 13 14 15 16 16 16 17 17 17 17 17 17 16 16 16 16 15 15 16 16 17 17 18 18 19 19 20 20 21
22 21 21 20 19 18 17 16 15 13 12 11 12 14 15 16 17 17 16 15 15 16 16 15 14 13 13 13 14 14 14 13 11 9 9 9 10 11 12 14 14 15 15 15 16 16 16 17 17 17 17 17 17 17 16 16 16 16 16 16 17 17 18 19 20 20 20 21 21
20 20 20 20 18 17 15 13 12 11 11 12 14 15 16 16 15 15 15 16 17 17 17 16 15 13 12 12 11 11 10 9 8 9 10 12 13 14 14 14 15 15 15 16 16 16 16 16 17 17 17 17 17 17 16 16 16 16 16 16 17 17 18 19 20 21 21 21 22
18 18 18 17 15 13 11 10 10 12 14 15 15 15 15 15 15 15 15 16 15 15 14 14 13 12 11 10 9 8 8 8 9 11 13 14 14 14 14 14 14 15 15 15 15 16 16 17 17 17 17 17 16 16 16 16 16 16 16 16 17 17 18 19 20 21 22 22 22
17 15 14 12 10 9 9 10 12 13 14 14 14 14 14 14 14 14 14 13 13 12 12 12 12 11 10 10 9 9 9 10 12 13 14 14 14 13 13 13 13 14 14 15 15 16 17 18 18 17 16 16 15 15 15 15 15 15 16 16 17 17 18 19 20 21 22 23 24
14 12 10 8 8 9 10 11 12 12 12 12 12 11 11 12 12 13 13 13 13 13 13 13 12 12 12 11 11 12 12 13 13 14 14 13 13 13 12 13 13 14 15 16 17 17 18 17 17 16 15 14 14 14 14 14 14 15 15 16 17 18 19 20 21 22 23 24 25
12 11 10 10 11 12 13 14 14 13 13 12 12 12 12 14 15 15 15 15 15 15 14 14 14 14 14 14 14 14 14 14 14 13 13 12 12 12 13 14 14 15 16 17 17 17 17 16 15 15 14 13 13 13 13 14 14 15 16 17 18 19 20 21 22 23 24 24 25
13 13 13 14 15 16 17 17 16 16 15 15 15 15 16 17 18 18 17 17 16 16 15 15 15 15 15 15 14 14 14 14 13 13 12 12 13 14 15 15 16 16 17 17 16 16 15 14 14 13 12 12 12 12 13 14 15 16 17 18 20 21 22 23 23 23 24 24 23
15 15 15 16 16 17 16 16 17 17 17 17 17 17 18 19 19 19 18 18 17 16 15 15 14 14 14 13 13 13 13 13 13 13 13 13 14 15 16 16 16 16 16 15 15 14 14 13 12 12 11 11 12 13 14 15 16 18 19 20 21 22 23 23 23 23 23 22 22
14 14 14 15 15 15 16 16 17 17 18 18 18 18 18 18 18 18 18 17 16 15 14 13 13 13 13 13 13 13 13 14 14 14 14 14 15 15 16 16 16 15 15 14 13 13 12 11 11 11 11 12 13 14 15 17 18 20 21 22 22 22 22 22 22 22 21 21 21
13 13 13 14 14 15 16 17 17 18 18 18 18 17 17 17 17 16 16 15 15 14 13 12 12 12 12 13 13 14 14 15 15 15 15 15 15 15 15 15 14 14 13 12 12 11 11 11 11 12 12 13 14 16 17 18 20 21 21 22 22 22 22 21 21 21 20 20 20
13 13 14 14 15 16 16 17 18 18 18 17 17 16 15 15 14 14 14 14 13 13 13 13 13 13 14 14 14 15 15 15 15 15 15 15 14 14 14 13 13 12 12 11 11 11 11 12 12 13 14 15 16 17 18 19 20 21 21 22 22 22 21 21 20 20 19 20 20
14 14 14 15 15 15 16 16 16 16 16 15 15 14 14 13 13 13 13 13 13 13 14 14 15 15 16 16 16 15 15 14 14 14 14 14 13 13 12 12 12 11 11 11 11 12 12 13 14 15 15 16 17 18 19 20 20 21 21 22 22 21 21 20 20 19 19 19 19
14 14 14 14 14 14 14 14 14 14 14 14 13 13 13 13 12 13 13 13 14 14 15 16 16 16 16 15 14 14 13 13 13 13 13 12 12 12 12 11 11 11 11 11 12 13 14 15 15 16 16 17 18 18 19 20 21 21 22 22 21 21 21 20 20 20 19 19 19
13 13 13 13 13 13 13 13 12 12 13 13 12 12 12 12 12 13 13 13 14 14 15 15 15 15 14 13 13 12 12 12 12 12 12 12 11 11 11 11 11 11 12 12 13 14 15 16 16 16 16 17 18 19 19 20 21 21 21 21 21 21 21 20 20 19 19 18 18
12 12 12 12 11 11 11 11 11 11 12 12 12 12 12 12 12 12 12 13 13 13 14 14 13 13 12 12 12 12 12 12 12 12 12 11 11 11 11 11 12 12 13 13 14 15 16 17 17 17 17 17 18 19 20 20 21 21 21 21 21 21 21 20 19 18 18 18 18
10 10 10 10 10 10 10 10 10 10 10 10 11 11 11 11 11 12 12 12 12 12 13 13 13 12 12 12 12 12 12 12 12 12 12 11 11 10 11 11 13 14 15 16 16 17 18 18 18 17 17 17 18 19 20 20 21 21 21 21 21 21 20 20 19 18 19 19 20
9 9 9 9 9 9 8 9 9 9 9 9 9 9 9 10 11 12 12 13 13 13 13 13 13 12 12 12 12 12 13 13 12 12 12 11 11 11 11 13 14 16 17 18 19 19 19 18 18 17 16 17 18 18 19 19 20 20 20 21 20 19 19 19 19 19 20 20 20
Wind_Direction
336 336 335 333 332 330 328 327 327 326 324 322 321 320 319 318 316 315 315 316 319 324 328 332 335 337 337 337 336 333 328 319 301 254 209 192 181 177 172 165 160 157 154 150 143 136 128 123 133 123 103 100 98 57 29 21 17 13 9 8 9 9 7 11 34 125 237 281 293
338 338 336 334 332 330 329 329 329 327 325 323 321 319 318 317 316 315 314 316 319 324 330 335 338 340 340 340 338 336 332 325 245 169 160 156 154 155 155 153 151 148 147 146 141 139 135 121 123 109 76 42 32 23 17 12 7 4 4 8 11 14 18 37 55 44 318 303 298
339 338 336 334 332 331 330 329 328 326 324 321 319 318 317 316 314 312 312 313 318 324 330 335 338 340 341 341 340 337 331 169 153 145 139 135 137 138 140 142 144 146 147 148 147 140 128 114 85 55 36 22 16 15 14 8 1 1 6 16 27 41 52 54 30 336 307 293 285
339 337 335 333 332 331 329 328 326 323 320 318 317 316 315 313 310 307 306 308 312 319 326 332 338 341 342 344 345 2 140 143 139 134 130 127 126 128 130 129 129 130 131 132 124 93 62 53 20 14 14 13 10 8 6 3 2 6 18 34 48 52 29 336 312 296 285 278 273
338 336 334 332 330 329 328 325 322 320 317 316 315 314 312 309 304 300 297 297 301 313 323 331 339 343 346 355 122 143 140 136 132 129 127 123 121 123 127 129 125 110 86 65 43 15 6 2 2 3 3 2 358 357 358 2 14 26 35 38 29 353 313 297 288 280 273 268 264
336 335 332 330 329 328 326 323 320 317 316 315 315 313 308 303 297 291 285 283 294 310 321 330 340 356 124 152 151 146 139 134 130 128 125 119 119 121 121 119 68 31 350 341 341 344 347 350 354 354 352 348 348 351 1 16 31 35 22 352 320 300 289 282 278 272 266 261 258
335 333 331 330 329 328 326 323 320 317 315 314 314 310 304 298 291 282 276 278 287 299 313 325 142 160 163 160 153 146 141 136 132 131 131 129 122 114 107 18 344 336 330 327 330 335 339 343 345 344 340 338 342 350 4 21 21 356 321 303 296 290 283 276 273 266 260 256 254
335 333 331 330 330 329 327 323 320 317 315 313 311 307 301 293 284 276 273 274 268 259 234 164 159 166 165 158 154 149 143 137 135 137 141 142 132 114 318 310 314 319 320 320 323 328 332 334 333 329 326 325 330 340 353 0 342 315 300 292 290 285 279 272 267 261 256 254 253
336 334 333 333 333 331 328 324 320 317 314 311 308 303 296 287 278 272 270 264 249 230 190 170 175 174 167 160 155 149 143 139 140 144 152 179 247 290 304 311 313 315 316 318 320 322 324 325 323 322 323 325 327 332 336 332 313 296 286 281 278 275 272 269 265 261 258 256 255
338 337 336 335 334 331 327 323 319 315 312 308 304 298 290 280 273 271 271 266 250 222 196 188 188 180 172 164 159 156 157 164 179 227 271 284 295 305 310 312 313 314 314 314 314 315 317 319 324 329 332 334 332 324 314 301 286 276 271 270 270 271 271 271 269 266 263 263 264
339 338 337 335 332 329 325 320 316 312 309 304 299 292 282 273 270 273 277 269 243 220 215 219 200 184 174 169 170 177 189 215 257 286 300 308 311 313 314 313 312 310 307 306 306 310 315 321 328 332 330 322 311 299 290 282 276 270 268 271 273 274 274 275 274 273 272 274 276
339 337 335 333 329 326 322 317 312 309 305 300 293 284 275 270 271 277 277 262 240 231 235 239 214 194 183 178 183 198 223 255 286 305 315 320 321 322 321 320 317 312 307 305 305 308 312 313 312 305 297 291 288 285 283 281 279 278 278 281 282 282 281 282 282 282 282 282 283
337 335 333 329 326 322 318 313 308 304 300 293 285 274 265 264 268 274 269 255 246 246 248 248 233 214 204 204 218 241 262 281 299 313 324 329 330 330 329 327 325 321 316 312 310 306 300 291 280 275 275 277 280 283 286 288 289 290 290 291 290 289 290 291 292 291 290 290 290
335 333 330 326 322 318 314 309 304 299 293 284 273 263 256 258 263 265 260 254 251 253 259 260 254 238 229 233 243 256 269 284 299 313 323 328 329 328 327 326 322 316 310 303 296 289 283 281 280 279 279 282 286 291 295 298 298 299 299 298 297 297 298 299 299 297 296 295 295
333 330 327 323 318 314 309 304 299 292 284 274 263 255 254 256 258 258 255 253 254 261 267 268 265 258 255 258 258 262 271 284 302 315 320 320 317 313 308 303 299 295 292 289 286 285 284 285 287 289 290 293 297 301 304 305 305 304 303 302 301 301 301 300 299 297 295 294 293
331 329 325 321 316 310 305 299 292 283 274 264 256 253 253 254 255 254 253 253 259 266 272 273 272 271 269 266 265 266 273 289 307 315 314 308 299 291 287 287 288 288 289 289 290 290 292 295 296 298 299 300 303 306 308 308 306 304 302 300 300 298 297 296 295 294 292 291 289
329 327 324 319 313 307 301 294 285 275 266 259 255 255 255 255 255 253 252 255 262 270 275 277 275 271 267 264 263 265 275 291 303 308 306 300 293 289 289 290 291 292 292 292 293 294 296 300 302 303 303 303 305 307 307 306 304 301 299 297 295 294 293 292 291 290 289 288 287
328 326 323 318 311 304 297 288 280 271 264 260 258 257 257 256 255 254 256 261 268 275 277 276 272 267 262 260 261 267 279 292 300 302 302 299 297 296 296 297 296 295 293 293 293 295 298 301 303 305 305 305 305 305 304 303 300 298 296 294 292 291 290 289 288 288 287 287 286
326 325 322 317 310 302 294 285 278 271 265 262 260 259 258 257 256 257 262 271 279 281 278 272 266 259 256 257 263 273 282 290 294 295 296 297 298 300 301 301 299 296 294 294 295 298 301 303 305 306 306 306 304 302 300 298 296 294 293 291 290 289 288 288 288 288 287 287 287
325 323 321 316 310 302 293 285 278 272 267 263 260 258 257 257 258 262 270 279 282 280 274 266 257 251 251 257 265 272 278 282 285 288 291 295 299 302 303 302 300 298 297 299 301 304 305 307 308 308 307 305 302 299 297 295 293 292 292 291 290 289 289 289 289 289 289 288 288
324 322 320 316 310 302 293 284 277 271 266 262 260 258 257 258 261 269 278 282 279 273 265 257 250 248 252 260 265 268 271 275 281 287 293 296 299 301 302 301 300 301 303 306 308 310 310 310 310 308 306 303 301 298 296 295 294 294 293 292 292 292 292 292 291 291 290 289 289
323 321 319 315 309 302 293 283 275 270 266 263 262 262 262 265 272 282 288 286 278 269 258 252 251 258 265 269 268 269 271 277 284 291 296 298 298 297 297 298 301 305 309 312 314 315 314 313 311 308 306 303 301 299 298 298 297 297 296 295 295 295 294 293 292 291 291 290 289
321 320 317 314 309 301 292 282 274 268 265 265 266 269 274 280 289 294 295 288 277 266 258 258 266 274 279 278 276 274 277 283 290 296 298 299 297 295 296 300 305 310 314 316 318 319 318 316 312 309 306 304 303 302 301 300 299 298 298 297 296 296 294 293 292 291 291 290 289
320 318 316 313 308 300 291 280 272 266 264 268 274 281 288 295 301 302 296 285 273 267 269 276 281 284 284 283 282 283 287 293 298 301 302 302 302 303 304 307 310 313 315 317 319 319 318 315 312 308 306 304 303 302 301 300 299 298 298 297 297 295 294 293 292 291 290 290 289
320 318 316 312 306 298 288 277 268 265 269 282 292 299 304 307 308 303 293 282 278 281 287 292 294 293 291 290 290 293 297 301 306 310 312 312 312 312 313 313 314 314 314 315 315 314 312 311 309 307 305 303 302 300 299 298 298 298 297 296 296 294 293 292 291 290 289 289 288
321 319 317 311 304 296 286 278 277 284 296 306 311 313 313 312 309 302 294 290 293 298 302 305 306 307 306 304 305 306 309 313 318 322 324 323 322 320 319 318 316 314 313 312 311 309 307 305 305 304 303 302 300 299 298 298 298 297 296 295 294 293 292 291 290 290 289 289 288
322 322 318 311 303 298 298 305 313 317 319 318 317 316 315 313 309 305 303 305 309 313 317 320 323 325 326 327 329 331 331 330 328 328 328 327 326 325 322 320 317 315 313 311 309 306 303 302 301 301 300 300 299 298 298 298 297 296 295 293 292 291 290 290 290 290 291 291 292
327 326 322 317 317 324 333 336 335 332 329 327 326 325 324 322 321 321 323 326 330 333 336 339 340 341 343 345 345 342 337 331 329 328 327 326 325 324 321 318 316 314 311 308 305 303 301 300 300 299 299 299 298 298 297 297 296 294 293 292 291 290 290 291 292 294 295 296 296
338 336 336 344 356 1 0 356 354 351 350 349 348 349 349 351 353 354 355 355 355 355 353 351 348 346 346 344 341 336 331 328 326 326 325 324 322 319 316 313 311 309 307 305 303 302 301 300 300 300 301 300 299 297 296 295 294 293 292 292 292 293 294 295 297 298 299 300 300
2 5 13 24 28 28 27 25 23 21 18 16 15 16 16 16 14 12 10 8 5 2 357 352 348 346 343 340 337 333 329 327 326 325 325 323 319 315 311 310 309 307 306 304 303 301 301 301 302 303 303 300 298 296 295 294 294 294 295 296 298 299 300 300 301 301 301 301 301
32 35 40 44 44 42 40 37 33 29 26 24 22 21 18 15 11 9 7 5 3 360 356 352 349 346 343 340 336 333 330 328 326 325 323 320 316 313 311 310 309 307 305 303 302 301 302 303 304 305 303 299 297 296 296 297 299 300 301 302 302 303 303 302 302 301 301 301 300
44 46 47 47 44 41 35 30 25 21 18 16 15 12 8 5 2 360 358 357 355 353 351 350 347 345 342 339 336 333 330 327 326 323 321 318 316 314 312 310 309 307 304 303 303 303 305 306 306 304 302 300 299 300 302 303 304 305 305 305 304 304 303 302 301 301 300 300 300
41 41 40 38 33 28 22 17 13 10 8 7 6 4 1 359 356 354 351 349 347 345 343 342 341 339 337 334 332 330 328 327 325 323 321 319 316 313 311 310 308 307 306 306 307 308 308 307 306 304 304 304 304 306 307 308 308 307 306 305 304 303 302 301 301 300 300 300 300
25 25 24 21 17 13 9 6 4 2 2 2 2 1 359 357 353 350 346 342 339 336 333 331 330 330 328 327 326 326 325 325 324 322 320 317 314 312 311 311 310 310 311 311 311 311 310 308 308 308 309 309 310 310 310 310 309 307 306 304 303 303 302 302 301 301 301 301 300
10 9 9 8 6 3 2 1 1 1 1 1 0 359 357 354 350 345 340 336 332 329 327 326 325 324 324 323 323 323 323 322 321 319 317 315 313 313 313 315 316 316 316 315 315 313 312 311 311 312 313 313 313 312 311 309 308 306 305 304 303 303 303 303 303 302 302 302 301
1 0 360 360 359 359 359 0 0 1 1 360 358 355 352 348 344 339 335 332 330 329 328 327 327 326 325 325 323 323 322 320 319 317 316 316 316 317 319 320 321 321 320 319 317 316 315 315 316 316 316 315 314 312 310 308 307 306 305 305 305 305 306 306 305 304 303 302 302
356 355 355 357 358 360 1 1 1 0 359 356 353 350 346 343 340 338 336 335 335 334 333 333 332 331 330 327 325 323 322 321 320 319 320 321 322 322 323 323 322 322 321 320 319 318 318 318 318 318 317 315 313 311 310 308 307 307 307 307 307 307 308 307 306 305 304 303 302
352 353 355 358 1 2 3 2 1 359 355 352 349 346 344 342 341 341 342 342 341 340 338 337 336 334 332 328 326 324 324 325 325 325 326 326 325 324 322 321 320 321 321 321 321 320 320 320 320 319 317 314 312 310 309 309 309 309 309 309 309 309 309 309 308 306 304 302 300
353 355 357 0 2 2 1 0 358 356 353 350 347 346 345 344 345 345 346 346 345 343 340 338 336 334 331 328 326 327 328 330 330 330 329 328 326 324 322 321 320 321 322 323 323 323 322 320 320 318 316 313 311 310 310 311 311 311 311 312 311 311 311 310 308 306 302 300 297
354 355 356 358 358 358 357 356 355 354 351 348 346 345 345 345 344 344 344 343 342 340 337 335 333 331 329 328 328 330 331 332 332 332 331 330 328 326 324 324 324 324 325 326 325 324 322 320 319 317 315 313 311 312 312 313 313 314 314 314 314 313 312 310 307 304 301 299 297
350 349 348 350 350 351 351 350 350 349 348 346 344 342 341 339 339 338 338 337 335 334 332 331 330 329 329 330 331 333 334 335 335 334 334 332 330 329 329 329 328 328 327 327 327 325 322 320 319 317 315 313 313 313 314 316 317 317 317 317 316 314 311 309 306 303 301 299 298
Height
797 796 794 793 791 790 789 788 787 786 785 785 784 784 783 782 782 781 780 779 778 778 777 776 775 774 774 773 772 772 771 771 770 770 770 770 771 771 772 772 773 773 774 774 775 775 776 777 777 778 779 779 780 781 782 783 784 784 784 785 785 786 786 787 788 788 789 789 789
797 796 794 793 791 789 788 787 786 785 784 784 783 783 782 781 780 779 779 778 777 777 776 775 774 774 773 773 773 772 772 771 771 771 771 771 772 772 772 772 773 773 774 774 775 776 776 777 777 778 779 779 780 781 782 783 783 784 784 784 785 785 786 786 787 787 788 788 788
797 796 794 793 791 789 788 786 785 784 784 783 782 781 781 780 779 778 778 777 777 776 775 774 774 774 773 773 773 773 772 772 772 772 772 772 773 773 773 773 774 774 775 775 775 776 776 777 777 778 778 779 780 780 781 782 782 783 783 784 784 785 785 786 786 786 786 787 787
797 796 794 793 790 789 787 786 785 784 783 782 781 780 779 779 778 777 777 776 776 775 774 774 774 773 773 773 773 773 773 773 772 772 773 773 774 774 774 774 775 775 776 776 776 776 776 777 777 777 778 779 779 780 780 781 782 782 783 783 784 784 784 785 785 785 786 786 787
797 795 794 792 790 788 787 786 784 784 783 782 781 780 779 778 777 776 776 775 775 774 774 774 773 773 773 774 774 773 773 773 773 773 773 774 774 775 776 776 776 776 777 777 777 777 777 777 777 777 777 778 779 779 780 781 781 782 782 783 783 783 784 784 784 784 785 785 786
796 795 794 792 790 788 786 785 784 784 783 782 780 779 779 778 777 776 775 774 774 774 774 773 773 773 773 774 773 773 773 773 773 774 774 775 775 776 776 777 777 777 777 777 777 777 777 777 777 777 777 778 778 779 780 780 781 781 781 782 782 783 783 783 783 783 784 784 784
796 795 793 791 789 787 786 785 784 783 782 781 780 779 779 778 777 776 775 774 774 773 773 773 773 773 773 773 773 773 773 773 773 774 774 775 776 776 776 777 777 777 777 777 777 777 777 777 777 777 777 778 778 779 779 780 780 780 780 781 781 781 781 781 781 781 781 781 781
795 794 792 790 788 786 785 784 784 783 782 781 780 779 779 778 777 776 775 774 774 773 773 773 773 773 773 773 773 773 773 773 773 774 774 775 775 776 776 777 777 777 777 777 777 777 777 777 777 777 777 778 778 778 778 779 779 779 779 779 779 779 779 779 779 779 779 779 779
794 793 791 789 787 785 784 784 783 782 782 781 780 779 779 778 777 776 775 775 774 774 774 774 774 773 773 773 773 773 773 773 774 774 774 774 775 775 775 776 776 776 776 776 776 776 776 776 776 776 776 777 777 777 777 777 777 777 777 777 777 777 777 777 777 778 778 778 778
792 791 789 788 786 784 784 783 782 782 781 781 780 779 779 778 777 777 776 776 775 775 774 774 774 773 773 773 773 773 773 774 774 774 774 774 774 774 774 774 774 775 775 775 775 775 775 775 775 775 775 775 775 775 776 776 776 775 775 775 775 775 775 776 776 776 777 777 777
791 789 788 786 785 784 783 782 782 781 781 780 780 779 779 778 778 777 777 776 776 775 775 775 774 774 773 773 773 773 774 774 774 774 774 774 774 774 774 774 774 774 774 774 774 773 773 774 774 774 774 774 774 774 774 774 774 774 774 774 774 774 774 775 775 775 776 776 776
789 788 786 785 784 783 782 781 781 780 780 779 779 779 778 778 777 777 777 776 776 776 775 775 775 774 774 774 773 773 773 773 774 774 774 774 774 773 773 773 773 773 773 772 772 772 772 772 773 773 773 773 773 773 773 773 773 773 773 773 773 773 773 774 774 774 774 774 774
788 786 785 784 783 782 781 781 780 780 779 779 778 778 777 777 777 777 776 776 776 776 776 775 775 774 774 774 773 773 773 773 773 773 773 773 773 772 772 772 772 772 772 772 772 771 771 771 771 771 772 772 772 772 772 773 773 772 772 772 772 772 772 772 773 773 773 773 773
786 785 784 783 782 781 780 780 779 779 779 778 778 777 777 776 776 776 776 776 776 775 775 775 775 774 774 773 773 772 772 772 772 772 772 772 772 772 771 771 771 771 771 771 771 771 771 771 771 771 771 771 771 772 772 772 771 771 771 771 771 771 771 771 771 771 771 771 771
785 784 783 782 781 780 779 779 779 778 778 777 777 776 776 775 775 775 775 775 775 775 775 775 774 774 774 773 772 772 771 771 771 771 771 771 771 771 771 771 771 771 771 771 771 770 770 770 770 770 771 771 770 770 770 770 770 770 769 769 769 769 769 769 770 770 770 770 770
784 783 782 781 780 779 779 778 778 778 777 777 776 775 775 775 774 774 774 774 774 774 774 774 774 774 773 772 772 771 770 770 770 770 770 770 770 770 770 770 770 770 770 770 770 770 770 770 770 770 769 769 769 769 769 769 769 769 769 768 768 768 768 768 769 769 769 769 768
783 782 781 780 779 779 778 778 777 777 776 776 775 775 774 774 774 773 773 773 773 773 773 773 773 773 772 771 771 770 770 769 769 769 769 769 769 769 769 769 769 769 769 769 769 769 769 769 769 769 769 768 768 768 768 768 768 767 767 767 767 767 767 767 767 767 767 767 767
782 781 780 779 778 778 777 777 776 776 776 775 775 774 774 774 773 773 772 772 772 772 772 772 772 771 771 770 770 769 769 769 769 769 769 769 769 769 769 769 769 769 769 768 768 768 768 768 768 768 767 767 767 767 766 766 766 766 766 766 766 766 766 766 766 766 765 765 765
781 780 779 778 777 776 776 775 775 775 775 774 774 774 773 773 772 772 771 771 771 771 770 770 770 770 769 769 769 769 769 769 769 769 769 769 769 768 768 768 768 768 768 768 768 768 767 767 767 766 766 766 765 765 765 765 765 765 765 764 764 764 764 764 764 764 764 764 764
779 779 777 777 776 775 774 774 774 774 774 773 773 773 772 772 772 771 771 771 770 770 769 769 769 769 769 769 768 768 768 768 768 768 768 768 768 768 768 768 768 768 767 767 767 767 766 766 766 765 765 764 764 764 764 764 764 763 763 763 763 763 763 763 763 763 762 762 762
778 777 776 775 774 774 773 773 773 772 772 772 772 772 771 771 771 771 770 770 770 769 768 767 767 768 768 768 768 768 768 767 767 767 767 767 767 767 767 767 767 767 767 767 766 766 765 765 764 764 764 763 763 763 763 762 762 762 762 762 762 762 761 761 761 761 761 760 760
777 776 775 774 773 773 772 772 772 771 771 771 771 771 771 771 771 770 770 770 769 769 768 767 767 767 767 767 767 767 767 767 767 766 766 766 766 766 766 767 766 766 766 766 766 765 764 764 764 763 763 762 762 762 761 761 761 761 761 760 760 760 760 760 759 759 759 759 759
775 774 774 773 772 772 771 771 771 770 770 770 770 771 771 771 771 770 770 769 769 769 768 767 766 766 766 766 766 766 766 766 766 765 765 765 765 766 766 766 766 766 765 765 765 764 764 763 763 762 762 761 761 761 760 760 760 759 759 759 759 759 759 758 758 758 757 757 757
774 773 773 772 771 771 770 770 770 770 770 770 771 771 771 771 771 770 770 770 770 769 768 767 766 765 765 765 765 765 765 764 764 764 764 764 765 765 765 765 765 765 764 764 764 764 763 762 762 761 761 761 760 760 760 759 759 759 758 758 757 757 757 757 756 756 756 755 755
773 772 771 771 770 770 770 770 770 770 770 771 771 771 771 770 770 770 770 770 770 769 768 767 766 764 764 764 764 764 764 764 764 764 764 764 764 764 764 764 764 764 764 763 763 763 762 762 761 761 760 760 760 759 759 758 758 757 757 756 756 755 755 755 754 754 754 754 753
771 770 770 770 770 769 769 770 770 771 771 771 770 770 770 769 769 769 769 769 769 768 767 766 765 764 763 763 762 762 763 763 763 763 763 763 763 763 763 763 763 763 762 762 762 762 761 761 761 760 760 759 759 758 758 757 756 756 755 755 754 754 754 753 752 752 752 752 751
769 769 769 769 769 770 770 771 771 771 771 770 770 769 769 769 769 769 769 768 768 767 766 765 764 764 763 762 762 762 762 762 762 762 762 762 762 762 762 762 762 761 761 761 761 761 760 760 760 759 759 758 758 757 756 756 755 755 754 754 753 753 752 751 751 750 750 749 749
769 768 768 769 769 770 770 770 770 770 770 770 769 769 769 769 769 768 768 767 766 765 765 764 764 763 763 762 762 762 762 762 761 761 761 761 761 761 761 761 761 761 760 760 760 760 759 759 759 758 758 757 756 755 755 754 754 754 753 752 752 751 751 750 749 749 748 747 747
769 768 768 768 769 769 769 769 769 770 770 769 769 768 768 768 768 767 767 766 765 764 764 764 763 763 762 762 762 761 761 761 761 760 760 760 760 760 760 760 760 760 760 759 759 759 759 758 758 757 756 756 755 754 754 753 753 752 752 751 750 750 749 749 748 747 746 746 745
769 769 768 768 768 769 769 769 769 770 769 769 768 767 767 767 767 766 766 765 764 764 764 764 763 763 762 762 762 761 761 760 760 760 759 759 759 759 759 759 759 759 759 759 759 758 757 757 756 755 755 754 754 753 753 752 752 751 750 750 749 749 748 747 746 745 744 744 743
771 770 769 769 769 769 770 770 770 769 769 768 768 767 767 767 767 766 766 765 765 764 764 764 763 763 763 762 762 761 760 760 760 759 759 759 759 759 758 759 759 758 758 758 757 757 756 755 754 754 754 753 753 752 751 751 750 750 749 748 748 747 746 745 744 744 743 742 741
772 772 771 770 770 770 770 770 770 769 769 768 768 768 768 767 767 767 766 766 765 764 764 764 763 763 762 762 761 761 760 760 759 759 759 758 758 758 758 758 758 757 757 756 756 755 754 754 753 753 753 752 751 751 750 750 749 748 747 747 746 745 744 744 743 742 741 740 740
774 773 772 772 771 771 770 770 769 769 769 768 768 768 768 767 767 766 766 765 765 764 764 764 763 762 762 761 761 760 760 759 759 759 758 758 757 757 757 757 756 756 755 755 754 754 753 753 752 752 751 751 750 749 749 748 747 747 746 745 744 743 743 742 741 740 739 739 738
775 774 773 772 772 771 770 770 769 769 769 768 768 767 767 767 766 766 765 765 764 764 764 763 763 762 761 761 760 760 759 759 759 758 758 757 757 756 756 756 755 755 754 754 753 753 752 752 751 751 750 750 749 748 748 747 746 745 744 743 742 741 741 740 739 739 738 737 736
775 774 774 773 772 771 770 770 769 769 768 768 767 767 766 766 765 765 765 764 764 764 763 763 762 761 761 760 760 759 759 758 758 757 757 756 756 755 755 754 754 754 754 753 752 752 751 751 750 750 749 749 748 747 746 745 744 743 742 741 740 739 739 738 738 737 736 735 735
776 775 774 773 772 771 770 770 769 769 768 767 767 766 765 765 765 764 764 764 763 763 762 762 761 761 760 759 759 759 758 758 757 756 756 755 755 754 754 754 754 753 753 752 752 751 751 750 749 749 748 747 746 745 744 743 742 741 740 739 738 738 737 736 736 735 734 734 733
776 775 774 773 772 771 770 769 769 768 768 767 766 766 765 765 764 764 764 763 763 762 761 761 760 760 759 759 758 758 757 757 756 756 755 754 754 754 753 753 753 752 752 751 751 750 749 749 748 747 746 745 744 743 742 741 740 739 739 738 737 736 735 735 734 733 733 732 732
776 775 774 773 772 771 770 769 769 768 767 767 766 766 765 764 764 764 763 763 762 761 761 760 760 759 759 758 758 757 757 756 756 755 754 754 754 753 753 752 752 752 751 751 750 749 748 747 747 746 745 744 743 742 741 740 739 738 737 736 735 734 734 733 732 732 731 731 730
776 775 774 773 772 771 770 769 769 768 767 767 766 766 765 764 764 764 763 763 762 761 761 760 759 759 758 758 757 757 756 756 755 755 754 754 753 753 752 752 751 750 750 749 749 748 747 746 745 744 744 743 742 741 739 739 737 736 735 734 734 733 732 731 731 730 729 729 729
776 775 774 773 772 771 770 769 769 768 767 767 766 766 765 764 764 764 763 762 762 761 760 760 759 759 758 757 757 756 756 755 755 754 754 753 753 752 751 751 750 749 749 748 748 747 746 745 744 743 742 741 740 739 739 737 736 735 734 733 732 731 730 729 729 729 728 727 726
776 775 774 773 772 771 770 769 769 768 767 767 766 765 765 764 764 763 763 762 761 761 760 759 759 758 758 757 756 756 755 755 754 754 753 753 752 751 751 750 749 748 748 747 746 745 744 743 742 742 741 740 739 739 737 736 735 734 733 732 731 730 729 728 727 726 726 725 724